STARLINK-35052

Last updated on Tue Oct 07 2025 00:02:06 GMT+0000 (Coordinated Universal Time)

1 65540U 25200W 25276.66670139 -.01266590 00000+0 -24803-1 0 9997 2 65540 97.6035 343.2342 0001786 85.8275 82.7388 15.50169961 5363

Satellite not in orbit

STARLINK-35052